Time,TemperatureF,DewpointF,PressureIn,WindDirection,WindDirectionDegrees,WindSpeedMPH,WindSpeedGustMPH,Humidity,HourlyPrecipIn,Conditions,Clouds,dailyrainin,SoftwareType,DateUTC
2017-10-22 00:01:00,74.0,71.0,29.91,SE,135,3.0,8.0,91,0.00,,,0.00,Rainwise IP-100,2017-10-22 05:01:00,
2017-10-22 00:06:00,75.0,72.0,29.90,SE,135,5.0,7.0,90,0.00,,,0.00,Rainwise IP-100,2017-10-22 05:06:00,
2017-10-22 00:11:00,74.0,71.0,29.90,SE,135,2.0,7.0,90,0.00,,,0.00,Rainwise IP-100,2017-10-22 05:11:00,
2017-10-22 00:16:00,74.0,71.0,29.90,South,180,3.0,8.0,90,0.00,,,0.00,Rainwise IP-100,2017-10-22 05:16:00,
2017-10-22 00:21:00,74.0,71.0,29.90,ESE,112,0.0,7.0,90,0.00,,,0.00,Rainwise IP-100,2017-10-22 05:21:00,
2017-10-22 00:26:00,74.0,71.0,29.89,SSE,157,6.0,8.0,91,0.00,,,0.00,Rainwise IP-100,2017-10-22 05:26:00,
2017-10-22 00:31:00,74.0,71.0,29.89,SE,135,6.0,9.0,91,0.00,,,0.00,Rainwise IP-100,2017-10-22 05:31:00,
2017-10-22 00:36:00,74.0,71.0,29.88,ESE,112,0.0,9.0,91,0.00,,,0.00,Rainwise IP-100,2017-10-22 05:36:00,
2017-10-22 00:41:00,74.0,71.0,29.88,SSE,157,2.0,10.0,91,0.00,,,0.00,Rainwise IP-100,2017-10-22 05:41:00,
2017-10-22 00:46:00,74.0,71.0,29.88,SE,135,0.0,6.0,91,0.00,,,0.00,Rainwise IP-100,2017-10-22 05:46:00,
2017-10-22 00:51:00,74.0,71.0,29.88,SSE,157,0.0,10.0,91,0.00,,,0.00,Rainwise IP-100,2017-10-22 05:51:00,
2017-10-22 00:56:00,74.0,71.0,29.88,SE,135,3.0,10.0,91,0.00,,,0.00,Rainwise IP-100,2017-10-22 05:56:00,
2017-10-22 01:01:00,74.0,71.0,29.88,ESE,112,4.0,8.0,91,0.00,,,0.00,Rainwise IP-100,2017-10-22 06:01:00,
2017-10-22 01:06:00,74.0,71.0,29.88,SSE,157,1.0,10.0,91,0.00,,,0.00,Rainwise IP-100,2017-10-22 06:06:00,
2017-10-22 01:11:00,74.0,71.0,29.88,SE,135,3.0,10.0,90,0.00,,,0.00,Rainwise IP-100,2017-10-22 06:11:00,
2017-10-22 01:16:00,75.0,71.0,29.88,South,180,0.0,9.0,89,0.00,,,0.00,Rainwise IP-100,2017-10-22 06:16:00,
2017-10-22 01:21:00,75.0,71.0,29.88,ESE,112,5.0,8.0,89,0.00,,,0.00,Rainwise IP-100,2017-10-22 06:21:00,
2017-10-22 01:26:00,75.0,71.0,29.88,South,180,4.0,8.0,88,0.00,,,0.00,Rainwise IP-100,2017-10-22 06:26:00,
2017-10-22 01:31:00,75.0,71.0,29.88,ESE,112,0.0,7.0,88,0.00,,,0.00,Rainwise IP-100,2017-10-22 06:31:00,
2017-10-22 01:41:00,75.0,71.0,29.87,SE,135,3.0,14.0,87,0.00,,,0.00,Rainwise IP-100,2017-10-22 06:41:00,
2017-10-22 01:46:00,75.0,71.0,29.87,NNW,337,0.0,9.0,87,0.00,,,0.00,Rainwise IP-100,2017-10-22 06:46:00,
2017-10-22 01:51:00,75.0,71.0,29.87,SSW,202,3.0,7.0,87,0.00,,,0.00,Rainwise IP-100,2017-10-22 06:51:00,
2017-10-22 01:56:00,75.0,71.0,29.88,SSW,202,0.0,10.0,86,0.00,,,0.00,Rainwise IP-100,2017-10-22 06:56:00,
2017-10-22 02:01:00,75.0,71.0,29.88,South,180,1.0,8.0,86,0.00,,,0.00,Rainwise IP-100,2017-10-22 07:01:00,
2017-10-22 02:06:00,75.0,71.0,29.88,SE,135,2.0,9.0,86,0.00,,,0.00,Rainwise IP-100,2017-10-22 07:06:00,
2017-10-22 02:11:00,75.0,71.0,29.88,SE,135,1.0,4.0,86,0.00,,,0.00,Rainwise IP-100,2017-10-22 07:11:00,
2017-10-22 02:16:00,75.0,71.0,29.88,SE,135,3.0,6.0,86,0.00,,,0.00,Rainwise IP-100,2017-10-22 07:16:00,
2017-10-22 02:21:00,75.0,70.0,29.88,SSE,157,3.0,9.0,85,0.00,,,0.00,Rainwise IP-100,2017-10-22 07:21:00,
2017-10-22 02:26:00,75.0,70.0,29.91,West,270,0.0,14.0,85,0.00,,,0.00,Rainwise IP-100,2017-10-22 07:26:00,
2017-10-22 02:31:00,71.0,60.0,29.91,WSW,247,3.0,16.0,70,0.00,,,0.00,Rainwise IP-100,2017-10-22 07:31:00,
2017-10-22 02:36:00,65.0,61.0,30.02,NW,315,0.0,8.0,87,0.12,,,0.02,Rainwise IP-100,2017-10-22 07:36:00,
2017-10-22 02:41:00,62.0,61.0,30.02,WNW,292,3.0,10.0,96,0.48,,,0.08,Rainwise IP-100,2017-10-22 07:41:00,
2017-10-22 02:46:00,60.0,60.0,30.02,NNE,22,0.0,7.0,100,1.20,,,0.22,Rainwise IP-100,2017-10-22 07:46:00,
2017-10-22 02:51:00,59.0,59.0,30.02,NW,315,0.0,5.0,100,1.02,,,0.25,Rainwise IP-100,2017-10-22 07:51:00,
2017-10-22 02:56:00,59.0,59.0,30.02,North,360,1.0,8.0,100,0.48,,,0.30,Rainwise IP-100,2017-10-22 07:56:00,
2017-10-22 03:01:00,58.0,58.0,30.02,NNW,337,3.0,6.0,100,0.54,,,0.34,Rainwise IP-100,2017-10-22 08:01:00,
2017-10-22 03:06:00,58.0,58.0,29.98,North,360,3.0,8.0,100,0.36,,,0.36,Rainwise IP-100,2017-10-22 08:06:00,
2017-10-22 03:11:00,58.0,58.0,29.98,SW,225,0.0,5.0,100,0.12,,,0.36,Rainwise IP-100,2017-10-22 08:11:00,
2017-10-22 03:16:00,58.0,58.0,30.00,SSW,202,0.0,3.0,100,0.00,,,0.36,Rainwise IP-100,2017-10-22 08:16:00,
2017-10-22 03:21:00,58.0,58.0,30.00,WNW,292,0.0,5.0,100,0.00,,,0.36,Rainwise IP-100,2017-10-22 08:21:00,
2017-10-22 03:26:00,58.0,58.0,30.00,North,360,0.0,2.0,100,0.00,,,0.36,Rainwise IP-100,2017-10-22 08:26:00,
2017-10-22 03:31:00,58.0,58.0,30.00,NW,315,0.0,0.0,100,0.06,,,0.37,Rainwise IP-100,2017-10-22 08:31:00,
2017-10-22 03:36:00,58.0,58.0,30.00,South,180,0.0,0.0,100,0.06,,,0.37,Rainwise IP-100,2017-10-22 08:36:00,
2017-10-22 03:41:00,58.0,58.0,30.00,SW,225,0.0,2.0,100,0.00,,,0.37,Rainwise IP-100,2017-10-22 08:41:00,
2017-10-22 03:46:00,58.0,58.0,30.02,South,180,0.0,2.0,100,0.00,,,0.37,Rainwise IP-100,2017-10-22 08:46:00,
2017-10-22 03:51:00,58.0,58.0,30.02,SSW,202,0.0,1.0,100,0.00,,,0.37,Rainwise IP-100,2017-10-22 08:51:00,
2017-10-22 03:56:00,58.0,58.0,30.01,WNW,292,0.0,2.0,100,0.06,,,0.38,Rainwise IP-100,2017-10-22 08:56:00,
2017-10-22 04:01:00,58.0,58.0,30.01,WSW,247,0.0,0.0,100,0.06,,,0.38,Rainwise IP-100,2017-10-22 09:01:00,
2017-10-22 04:06:00,58.0,58.0,30.01,SSW,202,0.0,2.0,100,0.00,,,0.38,Rainwise IP-100,2017-10-22 09:06:00,
2017-10-22 04:11:00,58.0,58.0,30.01,NW,315,0.0,1.0,100,0.06,,,0.39,Rainwise IP-100,2017-10-22 09:11:00,
2017-10-22 04:16:00,58.0,58.0,30.00,WNW,292,0.0,2.0,100,0.06,,,0.39,Rainwise IP-100,2017-10-22 09:16:00,
2017-10-22 04:21:00,58.0,58.0,30.00,WSW,247,0.0,0.0,100,0.06,,,0.40,Rainwise IP-100,2017-10-22 09:21:00,
2017-10-22 04:26:00,58.0,58.0,30.00,SSW,202,2.0,2.0,100,0.06,,,0.40,Rainwise IP-100,2017-10-22 09:26:00,
2017-10-22 04:31:00,58.0,58.0,30.00,SSW,202,0.0,3.0,100,0.06,,,0.41,Rainwise IP-100,2017-10-22 09:31:00,
2017-10-22 04:36:00,58.0,58.0,30.00,NNW,337,0.0,2.0,100,0.06,,,0.41,Rainwise IP-100,2017-10-22 09:36:00,
2017-10-22 04:37:00,58.0,58.0,30.00,NNW,337,0.0,2.0,100,0.06,,,0.41,Rainwise IP-100,2017-10-22 09:37:00,
2017-10-22 04:42:00,58.0,58.0,30.00,NNW,337,0.0,0.0,100,0.06,,,0.42,Rainwise IP-100,2017-10-22 09:42:00,
2017-10-22 04:47:00,58.0,58.0,29.98,SW,225,0.0,0.0,100,0.12,,,0.43,Rainwise IP-100,2017-10-22 09:47:00,
2017-10-22 04:52:00,58.0,58.0,29.98,SW,225,0.0,0.0,100,0.12,,,0.44,Rainwise IP-100,2017-10-22 09:52:00,
2017-10-22 04:57:00,58.0,58.0,29.99,West,270,0.0,0.0,100,0.06,,,0.44,Rainwise IP-100,2017-10-22 09:57:00,
2017-10-22 05:02:00,58.0,58.0,29.99,NW,315,0.0,0.0,100,0.06,,,0.45,Rainwise IP-100,2017-10-22 10:02:00,
2017-10-22 05:07:00,58.0,58.0,29.99,NNW,337,0.0,0.0,100,0.06,,,0.45,Rainwise IP-100,2017-10-22 10:07:00,
2017-10-22 05:12:00,58.0,58.0,29.99,NNW,337,0.0,0.0,100,0.06,,,0.46,Rainwise IP-100,2017-10-22 10:12:00,
2017-10-22 05:17:00,58.0,58.0,30.00,NNW,337,0.0,0.0,100,0.12,,,0.47,Rainwise IP-100,2017-10-22 10:17:00,
2017-10-22 05:22:00,58.0,58.0,30.00,NNW,337,0.0,0.0,100,0.06,,,0.47,Rainwise IP-100,2017-10-22 10:22:00,
2017-10-22 05:27:00,58.0,58.0,30.00,NNW,337,0.0,0.0,100,0.06,,,0.48,Rainwise IP-100,2017-10-22 10:27:00,
2017-10-22 05:32:00,58.0,58.0,30.00,NNW,337,0.0,0.0,100,0.12,,,0.49,Rainwise IP-100,2017-10-22 10:32:00,
2017-10-22 05:37:00,58.0,58.0,30.00,NNW,337,0.0,0.0,100,0.18,,,0.51,Rainwise IP-100,2017-10-22 10:37:00,
2017-10-22 05:42:00,58.0,58.0,30.00,ESE,112,0.0,0.0,100,0.18,,,0.52,Rainwise IP-100,2017-10-22 10:42:00,
2017-10-22 05:47:00,58.0,58.0,30.00,SE,135,0.0,0.0,100,0.06,,,0.53,Rainwise IP-100,2017-10-22 10:47:00,
2017-10-22 05:52:00,58.0,58.0,30.00,SE,135,0.0,0.0,100,0.06,,,0.53,Rainwise IP-100,2017-10-22 10:52:00,
2017-10-22 05:57:00,58.0,58.0,30.00,ESE,112,0.0,1.0,100,0.06,,,0.53,Rainwise IP-100,2017-10-22 10:57:00,
2017-10-22 06:02:00,58.0,58.0,30.00,SE,135,0.0,2.0,100,0.06,,,0.54,Rainwise IP-100,2017-10-22 11:02:00,
2017-10-22 06:07:00,58.0,58.0,29.99,SE,135,0.0,2.0,100,0.06,,,0.54,Rainwise IP-100,2017-10-22 11:07:00,
2017-10-22 06:12:00,58.0,58.0,29.99,SE,135,0.0,0.0,100,0.00,,,0.54,Rainwise IP-100,2017-10-22 11:12:00,
2017-10-22 06:17:00,58.0,58.0,29.98,SE,135,0.0,0.0,100,0.06,,,0.55,Rainwise IP-100,2017-10-22 11:17:00,
2017-10-22 06:22:00,58.0,58.0,29.98,SSW,202,0.0,0.0,100,0.06,,,0.55,Rainwise IP-100,2017-10-22 11:22:00,
2017-10-22 06:27:00,58.0,58.0,30.00,SSW,202,0.0,0.0,100,0.00,,,0.55,Rainwise IP-100,2017-10-22 11:27:00,
2017-10-22 06:32:00,58.0,58.0,30.00,SSE,157,0.0,2.0,100,0.00,,,0.55,Rainwise IP-100,2017-10-22 11:32:00,
2017-10-22 06:37:00,57.0,57.0,30.00,SSW,202,0.0,2.0,100,0.00,,,0.55,Rainwise IP-100,2017-10-22 11:37:00,
2017-10-22 06:42:00,57.0,57.0,30.00,SE,135,0.0,1.0,100,0.00,,,0.55,Rainwise IP-100,2017-10-22 11:42:00,
2017-10-22 06:47:00,57.0,57.0,30.00,SE,135,0.0,0.0,100,0.00,,,0.55,Rainwise IP-100,2017-10-22 11:47:00,
2017-10-22 06:52:00,57.0,57.0,30.00,SE,135,0.0,0.0,100,0.00,,,0.55,Rainwise IP-100,2017-10-22 11:52:00,
2017-10-22 06:57:00,57.0,57.0,30.00,SE,135,0.0,0.0,100,0.00,,,0.55,Rainwise IP-100,2017-10-22 11:57:00,
2017-10-22 07:02:00,57.0,57.0,30.00,SSE,157,0.0,0.0,100,0.06,,,0.56,Rainwise IP-100,2017-10-22 12:02:00,
2017-10-22 07:07:00,57.0,57.0,30.01,SSE,157,0.0,0.0,100,0.06,,,0.56,Rainwise IP-100,2017-10-22 12:07:00,
2017-10-22 07:12:00,57.0,57.0,30.01,SSE,157,0.0,0.0,100,0.00,,,0.56,Rainwise IP-100,2017-10-22 12:12:00,
2017-10-22 07:17:00,57.0,57.0,30.01,SSE,157,0.0,0.0,100,0.00,,,0.56,Rainwise IP-100,2017-10-22 12:17:00,
2017-10-22 07:22:00,57.0,57.0,30.01,SSE,157,0.0,0.0,100,0.00,,,0.56,Rainwise IP-100,2017-10-22 12:22:00,
2017-10-22 07:27:00,57.0,57.0,30.01,SSE,157,0.0,0.0,100,0.00,,,0.56,Rainwise IP-100,2017-10-22 12:27:00,
2017-10-22 07:32:00,57.0,57.0,30.01,SSE,157,0.0,0.0,100,0.00,,,0.56,Rainwise IP-100,2017-10-22 12:32:00,
2017-10-22 07:37:00,57.0,57.0,30.01,SSE,157,0.0,0.0,100,0.00,,,0.56,Rainwise IP-100,2017-10-22 12:37:00,
2017-10-22 07:42:00,57.0,57.0,30.01,SSE,157,0.0,0.0,100,0.00,,,0.56,Rainwise IP-100,2017-10-22 12:42:00,
2017-10-22 07:47:00,57.0,57.0,30.01,SSE,157,0.0,0.0,100,0.00,,,0.56,Rainwise IP-100,2017-10-22 12:47:00,
2017-10-22 07:52:00,57.0,57.0,30.01,SSE,157,0.0,0.0,100,0.00,,,0.56,Rainwise IP-100,2017-10-22 12:52:00,
2017-10-22 07:57:00,58.0,58.0,30.02,SSE,157,0.0,0.0,100,0.00,,,0.56,Rainwise IP-100,2017-10-22 12:57:00,
2017-10-22 08:02:00,58.0,58.0,30.02,SSE,157,0.0,0.0,100,0.00,,,0.56,Rainwise IP-100,2017-10-22 13:02:00,
2017-10-22 08:07:00,58.0,58.0,30.03,SSE,157,0.0,0.0,100,0.00,,,0.56,Rainwise IP-100,2017-10-22 13:07:00,
2017-10-22 08:12:00,58.0,58.0,30.03,SSE,157,0.0,0.0,100,0.06,,,0.57,Rainwise IP-100,2017-10-22 13:12:00,
2017-10-22 08:17:00,58.0,58.0,30.05,SSE,157,0.0,0.0,100,0.06,,,0.57,Rainwise IP-100,2017-10-22 13:17:00,
2017-10-22 08:22:00,58.0,58.0,30.05,SSE,157,0.0,0.0,100,0.00,,,0.57,Rainwise IP-100,2017-10-22 13:22:00,
2017-10-22 08:27:00,58.0,58.0,30.06,SSE,157,0.0,0.0,100,0.00,,,0.57,Rainwise IP-100,2017-10-22 13:27:00,
2017-10-22 08:32:00,58.0,58.0,30.06,East,90,0.0,0.0,100,0.06,,,0.58,Rainwise IP-100,2017-10-22 13:32:00,
2017-10-22 08:37:00,58.0,58.0,30.06,East,90,0.0,0.0,100,0.12,,,0.59,Rainwise IP-100,2017-10-22 13:37:00,
2017-10-22 08:42:00,58.0,58.0,30.06,ENE,67,2.0,2.0,100,0.06,,,0.59,Rainwise IP-100,2017-10-22 13:42:00,
2017-10-22 08:47:00,58.0,58.0,30.05,ENE,67,0.0,3.0,100,0.06,,,0.60,Rainwise IP-100,2017-10-22 13:47:00,
2017-10-22 08:52:00,58.0,58.0,30.05,ENE,67,0.0,0.0,100,0.06,,,0.60,Rainwise IP-100,2017-10-22 13:52:00,